Showing default

INTELSAT 4A-F4, 10024

Orbit data source: Space-Track

INTELSAT 4A-F4, 10024 is a payload satellite owned by INTELSAT (US) in GEO that was launched on Thu, 26 May 1977 UTC via an ATLAS SLV-3D CENTAUR launch vehicle from the Air Force Eastern Test Range (AFETR). Payloads include a variety of satellites, spacecraft, and rockets equipped with specific instruments for various scientific and technological missions. These include communications satellites like Starlink; space stations such as the ISS; scientific satellites like the Hubble; Earth observation satellites from companies like Planet Labs, Umbra, and HawkEye 360; GPS; miniature CubeSats for education and research; and military/defense satellites.

Not visible in the next 10 days
INTELSAT 4A-F4 details
Identifier
10024, 1977-041A
Orbit
GEO
Last TLE update16 hours ago
Origin
Flag of USINTELSAT (US / ITSO)
ManufacturerHughes
MissionNon-operational Civil Communications
Bus & MotorHS-353, SVM-4A
Mass1,515 kg wet, ~630 kg dry
Launch date (UTC)
1977-05-26 (48 years ago)
Launch vehicle
ATLAS SLV-3D CENTAUR
Launch site
Air Force Eastern Test Range (AFETR)
Object type
Payload
Rocket body
Debris
Shape & HBRCyl, 2.82 m
Radar Cross Section7.537 m², Large (>1 m²)

Expand to show TLE details & history

TLE from 16 hours ago
0 INTELSAT 4A-F4
1 10024U 77041A   25035.64019091 -.00000316  00000-0  00000+0 0  9991
2 10024   9.8702 314.5074 0012741 262.8247 288.9178  0.99446594116321
Epoch: 2025-02-04T15:21Z
Definitive object data (Epoch: 2025-02-04T15:21:52.494Z)
Latitude-1.96809°
Longitude140.45979°
Altitude36,001.875 km
Speed3.067 km/s
True Right ascension09h 43m 53s
True Declination-1° 57' 58"
Sunlit
Object was in daylight at TLE epoch
Visualization TLE readout
Latitude8.85086°
Longitude12.52631°
Altitude36,069.347 km
Speed3.063 km/s
Apparent Right ascension00h 49m 25s
Apparent Declination3° 10' 05"
Sunlit
Object is in daylight
Visualization observer readout
Local Sidereal Time08:57:31
Azimuth294.295° NW
Elevation-21.755°
Doppler factor1
Orbital elements
Apogee altitude36,074.563 km
Perigee altitude35,966.523 km
Semi-major axis42,398.68 km
Eccentricity0.0012741
Inclination9.8702°
RAAN314.5074°
Arg. of periapsis262.8247°
True anomaly288.77961°
Mean anomaly288.9178°
Eccentric anomaly288.84871°
Mean motion0.24861 °/min
BSTARUnknown
Orbital period1448.06 mins
Loading historical data...
10024 neighbors
Authenticating...
Loading maneuver chart data...
Loading historical data...
Loading historical data...
Loading historical data...
Loading historical data...
Loading historical data...
Loading historical data...
Loading historical data...
Other satellites on launch #41 in the year 1977 (1977-05-26 UTC)

INTELSAT 4A-F4 Visibility forecast

Observer location: undefined°, undefined

INTELSAT 4A-F4 is not visible in the next 10 days
Span
Click to sort rows by Start time (UTC) header in descending order
Start Az.
Max El. time (UTC)
Max El. Az.
Max El.
End time (UTC)
End Az.
|